owner,sensor,date,latitude,longitude,vertical_datum,mass_concentration_of_oxygen_in_sea_water,qcFlag 
DISL,ioos:station:DISL:MHPA:1,2013-01-01T06:30:00Z,30.6671,-87.9365,4.436,9.28,1111122 
DISL,ioos:station:DISL:MHPA:1,2013-01-01T07:00:00Z,30.6671,-87.9365,4.345,9.27,1111122 
DISL,ioos:station:DISL:MHPA:1,2013-01-01T07:30:00Z,30.6671,-87.9365,4.328,9.29,1111122 
DISL,ioos:station:DISL:MHPA:1,2013-01-01T08:00:00Z,30.6671,-87.9365,4.31,9.3,1111122 
DISL,ioos:station:DISL:MHPA:1,2013-01-01T08:30:00Z,30.6671,-87.9365,4.297,9.25,1111122 
DISL,ioos:station:DISL:MHPA:1,2013-01-01T09:00:00Z,30.6671,-87.9365,4.251,9.27,1111122 
DISL,ioos:station:DISL:MHPA:1,2013-01-01T09:30:00Z,30.6671,-87.9365,4.214,9.26,1111122 
DISL,ioos:station:DISL:MHPA:1,2013-01-01T10:00:00Z,30.6671,-87.9365,4.22,9.32,1111122 
DISL,ioos:station:DISL:MHPA:1,2013-01-01T10:30:00Z,30.6671,-87.9365,4.138,9.32,1111122 
DISL,ioos:station:DISL:MHPA:1,2013-01-01T11:00:00Z,30.6671,-87.9365,4.03,9.15,1111122 
DISL,ioos:station:DISL:MHPA:1,2013-01-01T11:30:00Z,30.6671,-87.9365,3.936,8.93,1111122 
DISL,ioos:station:DISL:MHPA:1,2013-01-01T12:00:00Z,30.6671,-87.9365,3.818,9.02,1111122 
DISL,ioos:station:DISL:MHPA:1,2013-01-01T12:30:00Z,30.6671,-87.9365,3.733,9.08,1111122 
DISL,ioos:station:DISL:MHPA:1,2013-01-01T13:00:00Z,30.6671,-87.9365,3.596,9.04,1111122 
DISL,ioos:station:DISL:MHPA:1,2013-01-01T13:30:00Z,30.6671,-87.9365,3.495,9.39,1111122 
DISL,ioos:station:DISL:MHPA:1,2013-01-01T14:00:00Z,30.6671,-87.9365,3.437,9.13,1111122 
DISL,ioos:station:DISL:MHPA:1,2013-01-01T14:30:00Z,30.6671,-87.9365,3.377,9.15,1111122 
DISL,ioos:station:DISL:MHPA:1,2013-01-01T15:00:00Z,30.6671,-87.9365,3.327,8.91,1111122 
DISL,ioos:station:DISL:MHPA:1,2013-01-01T15:30:00Z,30.6671,-87.9365,3.31,9.01,1111122 
DISL,ioos:station:DISL:MHPA:1,2013-01-01T16:00:00Z,30.6671,-87.9365,3.338,9.08,1111122 
DISL,ioos:station:DISL:MHPA:1,2013-01-01T16:30:00Z,30.6671,-87.9365,3.363,9.03,1111122 
DISL,ioos:station:DISL:MHPA:1,2013-01-01T17:00:00Z,30.6671,-87.9365,3.34,8.95,1111122 
DISL,ioos:station:DISL:MHPA:1,2013-01-01T17:30:00Z,30.6671,-87.9365,3.303,9.16,1111122 
DISL,ioos:station:DISL:MHPA:1,2013-01-01T18:00:00Z,30.6671,-87.9365,3.332,9.0,1111122 
DISL,ioos:station:DISL:MHPA:1,2013-01-01T18:30:00Z,30.6671,-87.9365,3.36,9.48,1111122 
DISL,ioos:station:DISL:MHPA:1,2013-01-01T19:00:00Z,30.6671,-87.9365,3.38,9.49,1111122 
DISL,ioos:station:DISL:MHPA:1,2013-01-01T19:30:00Z,30.6671,-87.9365,3.461,9.44,1111122 
DISL,ioos:station:DISL:MHPA:1,2013-01-01T20:00:00Z,30.6671,-87.9365,3.556,9.49,1111122 
DISL,ioos:station:DISL:MHPA:1,2013-01-01T20:30:00Z,30.6671,-87.9365,3.625,9.34,1111122 
DISL,ioos:station:DISL:MHPA:1,2013-01-01T21:00:00Z,30.6671,-87.9365,3.675,9.4,1111122 
DISL,ioos:station:DISL:MHPA:1,2013-01-01T21:30:00Z,30.6671,-87.9365,3.764,9.21,1111122 
DISL,ioos:station:DISL:MHPA:1,2013-01-01T22:00:00Z,30.6671,-87.9365,3.826,9.16,1111122 
DISL,ioos:station:DISL:MHPA:1,2013-01-01T22:30:00Z,30.6671,-87.9365,3.807,8.95,1111122 
DISL,ioos:station:DISL:MHPA:1,2013-01-01T23:00:00Z,30.6671,-87.9365,3.952,8.88,1111122 
DISL,ioos:station:DISL:MHPA:1,2013-01-01T23:30:00Z,30.6671,-87.9365,3.988,9.0,1111122 
DISL,ioos:station:DISL:MHPA:1,2013-01-02T00:00:00Z,30.6671,-87.9365,3.977,8.88,1111122 
DISL,ioos:station:DISL:MHPA:1,2013-01-02T00:30:00Z,30.6671,-87.9365,4.031,9.24,1111122 
DISL,ioos:station:DISL:MHPA:1,2013-01-02T01:00:00Z,30.6671,-87.9365,4.021,8.9,1111122 
DISL,ioos:station:DISL:MHPA:1,2013-01-02T01:30:00Z,30.6671,-87.9365,4.002,9.0,1111122 
DISL,ioos:station:DISL:MHPA:1,2013-01-02T02:00:00Z,30.6671,-87.9365,3.935,9.01,1111122 
DISL,ioos:station:DISL:MHPA:1,2013-01-02T02:30:00Z,30.6671,-87.9365,3.966,9.24,1111122 
DISL,ioos:station:DISL:MHPA:1,2013-01-02T03:00:00Z,30.6671,-87.9365,3.961,9.16,1111122 
DISL,ioos:station:DISL:MHPA:1,2013-01-02T03:30:00Z,30.6671,-87.9365,3.967,8.91,1111122 
DISL,ioos:station:DISL:MHPA:1,2013-01-02T04:00:00Z,30.6671,-87.9365,3.973,9.26,1111122 
DISL,ioos:station:DISL:MHPA:1,2013-01-02T04:30:00Z,30.6671,-87.9365,3.926,9.35,1111122 
DISL,ioos:station:DISL:MHPA:1,2013-01-02T05:00:00Z,30.6671,-87.9365,3.856,9.12,1111122 
DISL,ioos:station:DISL:MHPA:1,2013-01-02T05:30:00Z,30.6671,-87.9365,3.918,8.89,1111122 
DISL,ioos:station:DISL:MHPA:1,2013-01-02T06:00:00Z,30.6671,-87.9365,3.829,9.15,1111122 
DISL,ioos:station:DISL:MHPA:1,2013-01-02T06:30:00Z,30.6671,-87.9365,3.778,9.08,1111122 
DISL,ioos:station:DISL:MHPA:1,2013-01-02T07:00:00Z,30.6671,-87.9365,3.728,9.23,1111122 
DISL,ioos:station:DISL:MHPA:1,2013-01-02T07:30:00Z,30.6671,-87.9365,3.705,9.18,1111122 
DISL,ioos:station:DISL:MHPA:1,2013-01-02T08:00:00Z,30.6671,-87.9365,3.671,9.17,1111122 
DISL,ioos:station:DISL:MHPA:1,2013-01-02T08:30:00Z,30.6671,-87.9365,3.478,9.13,1111122 
DISL,ioos:station:DISL:MHPA:1,2013-01-02T09:00:00Z,30.6671,-87.9365,3.357,9.15,1111122 
DISL,ioos:station:DISL:MHPA:1,2013-01-02T09:30:00Z,30.6671,-87.9365,3.278,9.21,1111122 
DISL,ioos:station:DISL:MHPA:1,2013-01-02T10:00:00Z,30.6671,-87.9365,3.174,9.19,1111122 
DISL,ioos:station:DISL:MHPA:1,2013-01-02T10:30:00Z,30.6671,-87.9365,3.042,9.22,1111122 
DISL,ioos:station:DISL:MHPA:1,2013-01-02T11:00:00Z,30.6671,-87.9365,2.93,9.07,1111122 
DISL,ioos:station:DISL:MHPA:1,2013-01-02T11:30:00Z,30.6671,-87.9365,2.872,9.01,1111122 
DISL,ioos:station:DISL:MHPA:1,2013-01-02T12:00:00Z,30.6671,-87.9365,2.808,8.79,1111122 
DISL,ioos:station:DISL:MHPA:1,2013-01-02T12:30:00Z,30.6671,-87.9365,2.76,8.79,1111122 
DISL,ioos:station:DISL:MHPA:1,2013-01-02T13:00:00Z,30.6671,-87.9365,2.741,8.43,1111122 
DISL,ioos:station:DISL:MHPA:1,2013-01-02T13:30:00Z,30.6671,-87.9365,2.724,8.89,1111122 
DISL,ioos:station:DISL:MHPA:1,2013-01-02T14:00:00Z,30.6671,-87.9365,2.688,8.89,1111122 
DISL,ioos:station:DISL:MHPA:1,2013-01-02T14:30:00Z,30.6671,-87.9365,2.614,9.09,1111122 
DISL,ioos:station:DISL:MHPA:1,2013-01-02T15:00:00Z,30.6671,-87.9365,2.528,8.64,1111122 
DISL,ioos:station:DISL:MHPA:1,2013-01-02T15:30:00Z,30.6671,-87.9365,2.483,8.83,1111122 
DISL,ioos:station:DISL:MHPA:1,2013-01-02T16:00:00Z,30.6671,-87.9365,2.451,9.02,1111122 
DISL,ioos:station:DISL:MHPA:1,2013-01-02T16:30:00Z,30.6671,-87.9365,2.418,8.78,1111122 
DISL,ioos:station:DISL:MHPA:1,2013-01-02T17:00:00Z,30.6671,-87.9365,2.397,8.68,1111122 
DISL,ioos:station:DISL:MHPA:1,2013-01-02T17:30:00Z,30.6671,-87.9365,2.392,8.81,1111122 
DISL,ioos:station:DISL:MHPA:1,2013-01-02T18:00:00Z,30.6671,-87.9365,2.378,9.04,1111122 
DISL,ioos:station:DISL:MHPA:1,2013-01-02T18:30:00Z,30.6671,-87.9365,2.386,9.06,1111122 
DISL,ioos:station:DISL:MHPA:1,2013-01-02T19:00:00Z,30.6671,-87.9365,2.416,8.92,1111122 
DISL,ioos:station:DISL:MHPA:1,2013-01-02T19:30:00Z,30.6671,-87.9365,2.458,9.13,1111122 
DISL,ioos:station:DISL:MHPA:1,2013-01-02T20:00:00Z,30.6671,-87.9365,2.581,8.99,1111122 
DISL,ioos:station:DISL:MHPA:1,2013-01-02T20:30:00Z,30.6671,-87.9365,2.685,9.1,1111122 
DISL,ioos:station:DISL:MHPA:1,2013-01-02T21:00:00Z,30.6671,-87.9365,2.709,9.16,1111122 
DISL,ioos:station:DISL:MHPA:1,2013-01-02T21:30:00Z,30.6671,-87.9365,2.757,9.19,1111122 
DISL,ioos:station:DISL:MHPA:1,2013-01-02T22:00:00Z,30.6671,-87.9365,2.912,9.12,1111122 
DISL,ioos:station:DISL:MHPA:1,2013-01-02T22:30:00Z,30.6671,-87.9365,2.986,9.3,1111122 
DISL,ioos:station:DISL:MHPA:1,2013-01-02T23:00:00Z,30.6671,-87.9365,3.006,9.01,1111122 
DISL,ioos:station:DISL:MHPA:1,2013-01-02T23:30:00Z,30.6671,-87.9365,3.06,9.24,1111122 
DISL,ioos:station:DISL:MHPA:1,2013-01-03T00:00:00Z,30.6671,-87.9365,3.149,9.17,1111122 
DISL,ioos:station:DISL:MHPA:1,2013-01-03T00:30:00Z,30.6671,-87.9365,3.186,8.86,1111122 
DISL,ioos:station:DISL:MHPA:1,2013-01-03T01:00:00Z,30.6671,-87.9365,3.169,9.19,1111122 
DISL,ioos:station:DISL:MHPA:1,2013-01-03T01:30:00Z,30.6671,-87.9365,3.127,9.17,1111122 
DISL,ioos:station:DISL:MHPA:1,2013-01-03T02:00:00Z,30.6671,-87.9365,3.123,9.16,1111122 
DISL,ioos:station:DISL:MHPA:1,2013-01-03T02:30:00Z,30.6671,-87.9365,3.078,9.15,1111122 
DISL,ioos:station:DISL:MHPA:1,2013-01-03T03:00:00Z,30.6671,-87.9365,3.017,9.11,1111122 
DISL,ioos:station:DISL:MHPA:1,2013-01-03T03:30:00Z,30.6671,-87.9365,2.962,9.09,1111122 
DISL,ioos:station:DISL:MHPA:1,2013-01-03T04:00:00Z,30.6671,-87.9365,2.934,9.1,1111122 
DISL,ioos:station:DISL:MHPA:1,2013-01-03T04:30:00Z,30.6671,-87.9365,2.91,9.01,1111122 
DISL,ioos:station:DISL:MHPA:1,2013-01-03T05:00:00Z,30.6671,-87.9365,2.885,8.84,1111122 
DISL,ioos:station:DISL:MHPA:1,2013-01-03T05:30:00Z,30.6671,-87.9365,2.911,9.11,1111122 
DISL,ioos:station:DISL:MHPA:1,2013-01-03T06:00:00Z,30.6671,-87.9365,2.946,9.11,1111122 
DISL,ioos:station:DISL:MHPA:1,2013-01-03T06:30:00Z,30.6671,-87.9365,2.977,8.9,1111122 
DISL,ioos:station:DISL:MHPA:1,2013-01-03T07:00:00Z,30.6671,-87.9365,2.964,8.94,1111122 
DISL,ioos:station:DISL:MHPA:1,2013-01-03T07:30:00Z,30.6671,-87.9365,2.966,8.88,1111122 
DISL,ioos:station:DISL:MHPA:1,2013-01-03T08:00:00Z,30.6671,-87.9365,3.017,8.74,1111122 
DISL,ioos:station:DISL:MHPA:1,2013-01-03T08:30:00Z,30.6671,-87.9365,3.075,8.77,1111122 
DISL,ioos:station:DISL:MHPA:1,2013-01-03T09:00:00Z,30.6671,-87.9365,3.085,9.18,1111122 
DISL,ioos:station:DISL:MHPA:1,2013-01-03T09:30:00Z,30.6671,-87.9365,3.049,9.03,1111122 
DISL,ioos:station:DISL:MHPA:1,2013-01-03T10:00:00Z,30.6671,-87.9365,3.047,9.16,1111122 
DISL,ioos:station:DISL:MHPA:1,2013-01-03T10:30:00Z,30.6671,-87.9365,3.008,9.2,1111122 
DISL,ioos:station:DISL:MHPA:1,2013-01-03T11:00:00Z,30.6671,-87.9365,3.021,8.98,1111122 
DISL,ioos:station:DISL:MHPA:1,2013-01-03T11:30:00Z,30.6671,-87.9365,2.985,9.06,1111122 
DISL,ioos:station:DISL:MHPA:1,2013-01-03T12:00:00Z,30.6671,-87.9365,2.914,9.1,1111122 
DISL,ioos:station:DISL:MHPA:1,2013-01-03T12:30:00Z,30.6671,-87.9365,2.84,8.91,1111122 
DISL,ioos:station:DISL:MHPA:1,2013-01-03T13:00:00Z,30.6671,-87.9365,2.829,9.09,1111122 
DISL,ioos:station:DISL:MHPA:1,2013-01-03T13:30:00Z,30.6671,-87.9365,2.83,9.24,1111122 
DISL,ioos:station:DISL:MHPA:1,2013-01-03T14:00:00Z,30.6671,-87.9365,2.729,9.08,1111122 
DISL,ioos:station:DISL:MHPA:1,2013-01-03T14:30:00Z,30.6671,-87.9365,2.628,9.17,1111122 
DISL,ioos:station:DISL:MHPA:1,2013-01-03T15:00:00Z,30.6671,-87.9365,2.541,9.37,1111122 
DISL,ioos:station:DISL:MHPA:1,2013-01-03T15:30:00Z,30.6671,-87.9365,2.442,9.21,1111122 
DISL,ioos:station:DISL:MHPA:1,2013-01-03T16:00:00Z,30.6671,-87.9365,2.359,9.18,1111122 
DISL,ioos:station:DISL:MHPA:1,2013-01-03T16:30:00Z,30.6671,-87.9365,2.295,9.28,1111122 
DISL,ioos:station:DISL:MHPA:1,2013-01-03T17:00:00Z,30.6671,-87.9365,2.247,9.2,1111122 
DISL,ioos:station:DISL:MHPA:1,2013-01-03T17:30:00Z,30.6671,-87.9365,2.249,9.13,1111122 
DISL,ioos:station:DISL:MHPA:1,2013-01-03T18:00:00Z,30.6671,-87.9365,2.229,9.28,1111122 
DISL,ioos:station:DISL:MHPA:1,2013-01-03T18:30:00Z,30.6671,-87.9365,2.224,9.28,1111122 
DISL,ioos:station:DISL:MHPA:1,2013-01-03T19:00:00Z,30.6671,-87.9365,2.217,9.26,1111122 
DISL,ioos:station:DISL:MHPA:1,2013-01-03T19:30:00Z,30.6671,-87.9365,2.257,9.25,1111122 
DISL,ioos:station:DISL:MHPA:1,2013-01-03T20:00:00Z,30.6671,-87.9365,2.278,9.35,1111122 
DISL,ioos:station:DISL:MHPA:1,2013-01-03T20:30:00Z,30.6671,-87.9365,2.304,9.41,1111122 
DISL,ioos:station:DISL:MHPA:1,2013-01-03T21:00:00Z,30.6671,-87.9365,2.299,9.5,1111122 
DISL,ioos:station:DISL:MHPA:1,2013-01-03T21:30:00Z,30.6671,-87.9365,2.358,9.69,1111122 
DISL,ioos:station:DISL:MHPA:1,2013-01-03T22:00:00Z,30.6671,-87.9365,2.457,9.75,1111122 
DISL,ioos:station:DISL:MHPA:1,2013-01-03T22:30:00Z,30.6671,-87.9365,2.577,9.68,1111122 
DISL,ioos:station:DISL:MHPA:1,2013-01-03T23:00:00Z,30.6671,-87.9365,2.658,9.69,1111122 
DISL,ioos:station:DISL:MHPA:1,2013-01-03T23:30:00Z,30.6671,-87.9365,2.744,9.77,1111122 
DISL,ioos:station:DISL:MHPA:1,2013-01-04T00:00:00Z,30.6671,-87.9365,2.856,9.67,1111122 
DISL,ioos:station:DISL:MHPA:1,2013-01-04T00:30:00Z,30.6671,-87.9365,2.9,9.55,1111122 
DISL,ioos:station:DISL:MHPA:1,2013-01-04T01:00:00Z,30.6671,-87.9365,2.869,9.58,1111122 
DISL,ioos:station:DISL:MHPA:1,2013-01-04T01:30:00Z,30.6671,-87.9365,2.818,9.5,1111122 
DISL,ioos:station:DISL:MHPA:1,2013-01-04T02:00:00Z,30.6671,-87.9365,2.806,9.53,1111122 
DISL,ioos:station:DISL:MHPA:1,2013-01-04T02:30:00Z,30.6671,-87.9365,2.793,9.48,1111122 
DISL,ioos:station:DISL:MHPA:1,2013-01-04T03:00:00Z,30.6671,-87.9365,2.784,9.44,1111122 
DISL,ioos:station:DISL:MHPA:1,2013-01-04T03:30:00Z,30.6671,-87.9365,2.795,9.46,1111122 
DISL,ioos:station:DISL:MHPA:1,2013-01-04T04:00:00Z,30.6671,-87.9365,2.789,9.44,1111122 
DISL,ioos:station:DISL:MHPA:1,2013-01-04T04:30:00Z,30.6671,-87.9365,2.786,9.38,1111122 
DISL,ioos:station:DISL:MHPA:1,2013-01-04T05:00:00Z,30.6671,-87.9365,2.825,9.41,1111122 
DISL,ioos:station:DISL:MHPA:1,2013-01-04T05:30:00Z,30.6671,-87.9365,2.839,9.3,1111122 
DISL,ioos:station:DISL:MHPA:1,2013-01-04T06:00:00Z,30.6671,-87.9365,2.758,9.29,1111122 
DISL,ioos:station:DISL:MHPA:1,2013-01-04T06:30:00Z,30.6671,-87.9365,2.7,9.1,1111122 
DISL,ioos:station:DISL:MHPA:1,2013-01-04T07:00:00Z,30.6671,-87.9365,2.659,9.19,1111122 
DISL,ioos:station:DISL:MHPA:1,2013-01-04T07:30:00Z,30.6671,-87.9365,2.64,9.15,1111122 
DISL,ioos:station:DISL:MHPA:1,2013-01-04T08:00:00Z,30.6671,-87.9365,2.635,9.13,1111122 
DISL,ioos:station:DISL:MHPA:1,2013-01-04T08:30:00Z,30.6671,-87.9365,2.673,9.15,1111122 
DISL,ioos:station:DISL:MHPA:1,2013-01-04T09:00:00Z,30.6671,-87.9365,2.711,9.08,1111122 
DISL,ioos:station:DISL:MHPA:1,2013-01-04T09:30:00Z,30.6671,-87.9365,2.741,9.08,1111122 
DISL,ioos:station:DISL:MHPA:1,2013-01-04T10:00:00Z,30.6671,-87.9365,2.705,8.77,1111122 
DISL,ioos:station:DISL:MHPA:1,2013-01-04T10:30:00Z,30.6671,-87.9365,2.629,8.71,1111122 
DISL,ioos:station:DISL:MHPA:1,2013-01-04T11:00:00Z,30.6671,-87.9365,2.581,8.83,1111122 
DISL,ioos:station:DISL:MHPA:1,2013-01-04T11:30:00Z,30.6671,-87.9365,2.55,8.39,1111122 
DISL,ioos:station:DISL:MHPA:1,2013-01-04T12:00:00Z,30.6671,-87.9365,2.498,8.63,1111122 
DISL,ioos:station:DISL:MHPA:1,2013-01-04T12:30:00Z,30.6671,-87.9365,2.447,8.83,1111122 
DISL,ioos:station:DISL:MHPA:1,2013-01-04T13:00:00Z,30.6671,-87.9365,2.426,8.85,1111122 
DISL,ioos:station:DISL:MHPA:1,2013-01-04T13:30:00Z,30.6671,-87.9365,2.43,8.97,1111122 
DISL,ioos:station:DISL:MHPA:1,2013-01-04T14:00:00Z,30.6671,-87.9365,2.424,8.57,1111122 
DISL,ioos:station:DISL:MHPA:1,2013-01-04T14:30:00Z,30.6671,-87.9365,2.411,8.62,1111122 
DISL,ioos:station:DISL:MHPA:1,2013-01-04T15:00:00Z,30.6671,-87.9365,2.403,9.03,1111122 
DISL,ioos:station:DISL:MHPA:1,2013-01-04T15:30:00Z,30.6671,-87.9365,2.407,8.61,1111122 
DISL,ioos:station:DISL:MHPA:1,2013-01-04T16:00:00Z,30.6671,-87.9365,2.446,8.59,1111122 
DISL,ioos:station:DISL:MHPA:1,2013-01-04T16:30:00Z,30.6671,-87.9365,2.467,8.78,1111122 
DISL,ioos:station:DISL:MHPA:1,2013-01-04T17:00:00Z,30.6671,-87.9365,2.494,9.25,1111122 
DISL,ioos:station:DISL:MHPA:1,2013-01-04T17:30:00Z,30.6671,-87.9365,2.503,9.2,1111122 
DISL,ioos:station:DISL:MHPA:1,2013-01-04T18:00:00Z,30.6671,-87.9365,2.516,9.33,1111122 
DISL,ioos:station:DISL:MHPA:1,2013-01-04T18:30:00Z,30.6671,-87.9365,2.607,9.4,1111122 
DISL,ioos:station:DISL:MHPA:1,2013-01-04T19:00:00Z,30.6671,-87.9365,2.77,9.43,1111122 
DISL,ioos:station:DISL:MHPA:1,2013-01-04T19:30:00Z,30.6671,-87.9365,2.84,9.47,1111122 
DISL,ioos:station:DISL:MHPA:1,2013-01-04T20:00:00Z,30.6671,-87.9365,2.84,9.44,1111122 
DISL,ioos:station:DISL:MHPA:1,2013-01-04T21:00:00Z,30.6671,-87.9365,3.005,9.94,1111122 
DISL,ioos:station:DISL:MHPA:1,2013-01-04T21:30:00Z,30.6671,-87.9365,3.084,10.02,1111122 
DISL,ioos:station:DISL:MHPA:1,2013-01-04T22:00:00Z,30.6671,-87.9365,3.223,10.02,1111122 
DISL,ioos:station:DISL:MHPA:1,2013-01-04T22:30:00Z,30.6671,-87.9365,3.315,10.05,1111122 
DISL,ioos:station:DISL:MHPA:1,2013-01-04T23:00:00Z,30.6671,-87.9365,3.354,10.09,1111122 
DISL,ioos:station:DISL:MHPA:1,2013-01-04T23:30:00Z,30.6671,-87.9365,3.503,9.99,1111122 
DISL,ioos:station:DISL:MHPA:1,2013-01-05T00:00:00Z,30.6671,-87.9365,3.546,9.94,1111122 
DISL,ioos:station:DISL:MHPA:1,2013-01-05T00:30:00Z,30.6671,-87.9365,3.524,9.86,1111122 
DISL,ioos:station:DISL:MHPA:1,2013-01-05T01:00:00Z,30.6671,-87.9365,3.575,9.62,1111122 
DISL,ioos:station:DISL:MHPA:1,2013-01-05T01:30:00Z,30.6671,-87.9365,3.558,9.49,1111122 
DISL,ioos:station:DISL:MHPA:1,2013-01-05T02:00:00Z,30.6671,-87.9365,3.549,9.28,1111122 
DISL,ioos:station:DISL:MHPA:1,2013-01-05T02:30:00Z,30.6671,-87.9365,3.465,8.85,1111122 
DISL,ioos:station:DISL:MHPA:1,2013-01-05T03:00:00Z,30.6671,-87.9365,3.384,8.68,1111122 
DISL,ioos:station:DISL:MHPA:1,2013-01-05T03:30:00Z,30.6671,-87.9365,3.321,9.43,1111122 
DISL,ioos:station:DISL:MHPA:1,2013-01-05T04:00:00Z,30.6671,-87.9365,3.24,9.59,1111122 
DISL,ioos:station:DISL:MHPA:1,2013-01-05T04:30:00Z,30.6671,-87.9365,3.157,9.78,1111122 
DISL,ioos:station:DISL:MHPA:1,2013-01-05T05:00:00Z,30.6671,-87.9365,3.069,9.62,1111122 
DISL,ioos:station:DISL:MHPA:1,2013-01-05T05:30:00Z,30.6671,-87.9365,2.996,9.54,1111122 
DISL,ioos:station:DISL:MHPA:1,2013-01-05T06:00:00Z,30.6671,-87.9365,2.913,9.59,1111122 
DISL,ioos:station:DISL:MHPA:1,2013-01-05T06:30:00Z,30.6671,-87.9365,2.826,9.4,1111122 
DISL,ioos:station:DISL:MHPA:1,2013-01-05T07:00:00Z,30.6671,-87.9365,2.749,9.57,1111122 
DISL,ioos:station:DISL:MHPA:1,2013-01-05T07:30:00Z,30.6671,-87.9365,2.697,9.34,1111122 
DISL,ioos:station:DISL:MHPA:1,2013-01-05T08:00:00Z,30.6671,-87.9365,2.664,9.46,1111122 
DISL,ioos:station:DISL:MHPA:1,2013-01-05T08:30:00Z,30.6671,-87.9365,2.641,9.6,1111122 
DISL,ioos:station:DISL:MHPA:1,2013-01-05T09:00:00Z,30.6671,-87.9365,2.619,9.41,1111122 
DISL,ioos:station:DISL:MHPA:1,2013-01-05T09:30:00Z,30.6671,-87.9365,2.605,9.37,1111122 
DISL,ioos:station:DISL:MHPA:1,2013-01-05T10:00:00Z,30.6671,-87.9365,2.568,9.06,1111122 
DISL,ioos:station:DISL:MHPA:1,2013-01-05T10:30:00Z,30.6671,-87.9365,2.517,8.71,1111122 
DISL,ioos:station:DISL:MHPA:1,2013-01-05T11:00:00Z,30.6671,-87.9365,2.512,8.9,1111122 
DISL,ioos:station:DISL:MHPA:1,2013-01-05T11:30:00Z,30.6671,-87.9365,2.534,8.66,1111122 
DISL,ioos:station:DISL:MHPA:1,2013-01-05T12:00:00Z,30.6671,-87.9365,2.52,8.95,1111122 
DISL,ioos:station:DISL:MHPA:1,2013-01-05T12:30:00Z,30.6671,-87.9365,2.478,8.94,1111122 
DISL,ioos:station:DISL:MHPA:1,2013-01-05T13:00:00Z,30.6671,-87.9365,2.458,9.05,1111122 
DISL,ioos:station:DISL:MHPA:1,2013-01-05T13:30:00Z,30.6671,-87.9365,2.487,9.21,1111122 
DISL,ioos:station:DISL:MHPA:1,2013-01-05T14:00:00Z,30.6671,-87.9365,2.521,9.11,1111122 
DISL,ioos:station:DISL:MHPA:1,2013-01-05T14:30:00Z,30.6671,-87.9365,2.543,8.74,1111122 
DISL,ioos:station:DISL:MHPA:1,2013-01-05T15:00:00Z,30.6671,-87.9365,2.605,9.38,1111122 
DISL,ioos:station:DISL:MHPA:1,2013-01-05T15:30:00Z,30.6671,-87.9365,2.648,9.72,1111122 
DISL,ioos:station:DISL:MHPA:1,2013-01-05T16:00:00Z,30.6671,-87.9365,2.652,9.71,1111122 
DISL,ioos:station:DISL:MHPA:1,2013-01-05T16:30:00Z,30.6671,-87.9365,2.661,9.71,1111122 
DISL,ioos:station:DISL:MHPA:1,2013-01-05T17:00:00Z,30.6671,-87.9365,2.725,9.59,1111122 
DISL,ioos:station:DISL:MHPA:1,2013-01-05T17:30:00Z,30.6671,-87.9365,2.81,9.51,1111122 
DISL,ioos:station:DISL:MHPA:1,2013-01-05T18:00:00Z,30.6671,-87.9365,2.819,9.64,1111122 
DISL,ioos:station:DISL:MHPA:1,2013-01-05T18:30:00Z,30.6671,-87.9365,2.889,9.83,1111122 
DISL,ioos:station:DISL:MHPA:1,2013-01-05T19:00:00Z,30.6671,-87.9365,3.028,9.88,1111122 
DISL,ioos:station:DISL:MHPA:1,2013-01-05T19:30:00Z,30.6671,-87.9365,3.11,9.88,1111122 
DISL,ioos:station:DISL:MHPA:1,2013-01-05T20:00:00Z,30.6671,-87.9365,3.226,9.75,1111122 
DISL,ioos:station:DISL:MHPA:1,2013-01-05T20:30:00Z,30.6671,-87.9365,3.287,9.64,1111122 
DISL,ioos:station:DISL:MHPA:1,2013-01-05T21:00:00Z,30.6671,-87.9365,3.364,9.79,1111122 
DISL,ioos:station:DISL:MHPA:1,2013-01-05T21:30:00Z,30.6671,-87.9365,3.425,9.89,1111122 
DISL,ioos:station:DISL:MHPA:1,2013-01-05T22:00:00Z,30.6671,-87.9365,3.48,9.83,1111122 
DISL,ioos:station:DISL:MHPA:1,2013-01-05T22:30:00Z,30.6671,-87.9365,3.478,9.33,1111122 
DISL,ioos:station:DISL:MHPA:1,2013-01-05T23:00:00Z,30.6671,-87.9365,3.515,9.41,1111122 
DISL,ioos:station:DISL:MHPA:1,2013-01-05T23:30:00Z,30.6671,-87.9365,3.518,9.33,1111122 
DISL,ioos:station:DISL:MHPA:1,2013-01-06T00:00:00Z,30.6671,-87.9365,3.511,9.68,1111122 
DISL,ioos:station:DISL:MHPA:1,2013-01-06T00:30:00Z,30.6671,-87.9365,3.509,10.04,1111122 
DISL,ioos:station:DISL:MHPA:1,2013-01-06T01:00:00Z,30.6671,-87.9365,3.522,10.13,1111122 
DISL,ioos:station:DISL:MHPA:1,2013-01-06T01:30:00Z,30.6671,-87.9365,3.468,10.12,1111122 
DISL,ioos:station:DISL:MHPA:1,2013-01-06T02:00:00Z,30.6671,-87.9365,3.421,10.17,1111122 
DISL,ioos:station:DISL:MHPA:1,2013-01-06T02:30:00Z,30.6671,-87.9365,3.389,10.13,1111122 
DISL,ioos:station:DISL:MHPA:1,2013-01-06T03:00:00Z,30.6671,-87.9365,3.336,9.98,1111122 
DISL,ioos:station:DISL:MHPA:1,2013-01-06T03:30:00Z,30.6671,-87.9365,3.242,10.07,1111122 
DISL,ioos:station:DISL:MHPA:1,2013-01-06T04:00:00Z,30.6671,-87.9365,3.177,9.99,1111122 
DISL,ioos:station:DISL:MHPA:1,2013-01-06T04:30:00Z,30.6671,-87.9365,3.139,10.0,1111122 
DISL,ioos:station:DISL:MHPA:1,2013-01-06T05:00:00Z,30.6671,-87.9365,3.112,9.88,1111122 
DISL,ioos:station:DISL:MHPA:1,2013-01-06T05:30:00Z,30.6671,-87.9365,3.053,9.77,1111122 
DISL,ioos:station:DISL:MHPA:1,2013-01-06T06:00:00Z,30.6671,-87.9365,3.015,9.73,1111122 
DISL,ioos:station:DISL:MHPA:1,2013-01-06T06:30:00Z,30.6671,-87.9365,2.979,9.76,1111122 
DISL,ioos:station:DISL:MHPA:1,2013-01-06T07:00:00Z,30.6671,-87.9365,2.959,9.63,1111122 
DISL,ioos:station:DISL:MHPA:1,2013-01-06T07:30:00Z,30.6671,-87.9365,2.945,9.32,1111122 
DISL,ioos:station:DISL:MHPA:1,2013-01-06T08:00:00Z,30.6671,-87.9365,2.902,9.66,1111122 
DISL,ioos:station:DISL:MHPA:1,2013-01-06T08:30:00Z,30.6671,-87.9365,2.837,9.32,1111122 
DISL,ioos:station:DISL:MHPA:1,2013-01-06T09:00:00Z,30.6671,-87.9365,2.81,9.51,1111122 
DISL,ioos:station:DISL:MHPA:1,2013-01-06T09:30:00Z,30.6671,-87.9365,2.785,9.52,1111122 
DISL,ioos:station:DISL:MHPA:1,2013-01-06T10:00:00Z,30.6671,-87.9365,2.716,9.69,1111122 
DISL,ioos:station:DISL:MHPA:1,2013-01-06T10:30:00Z,30.6671,-87.9365,2.67,9.61,1111122 
DISL,ioos:station:DISL:MHPA:1,2013-01-06T11:00:00Z,30.6671,-87.9365,2.631,9.74,1111122 
DISL,ioos:station:DISL:MHPA:1,2013-01-06T11:30:00Z,30.6671,-87.9365,2.594,9.79,1111122 
DISL,ioos:station:DISL:MHPA:1,2013-01-06T12:00:00Z,30.6671,-87.9365,2.526,9.59,1111122 
DISL,ioos:station:DISL:MHPA:1,2013-01-06T12:30:00Z,30.6671,-87.9365,2.477,9.78,1111122 
DISL,ioos:station:DISL:MHPA:1,2013-01-06T13:00:00Z,30.6671,-87.9365,2.469,9.67,1111122 
DISL,ioos:station:DISL:MHPA:1,2013-01-06T13:30:00Z,30.6671,-87.9365,2.483,9.43,1111122 
DISL,ioos:station:DISL:MHPA:1,2013-01-06T14:00:00Z,30.6671,-87.9365,2.522,9.81,1111122 
DISL,ioos:station:DISL:MHPA:1,2013-01-06T14:30:00Z,30.6671,-87.9365,2.515,9.7,1111122 
DISL,ioos:station:DISL:MHPA:1,2013-01-06T15:00:00Z,30.6671,-87.9365,2.46,9.37,1111122 
DISL,ioos:station:DISL:MHPA:1,2013-01-06T15:30:00Z,30.6671,-87.9365,2.426,9.81,1111122 
DISL,ioos:station:DISL:MHPA:1,2013-01-06T16:00:00Z,30.6671,-87.9365,2.404,9.73,1111122 
DISL,ioos:station:DISL:MHPA:1,2013-01-06T16:30:00Z,30.6671,-87.9365,2.38,9.85,1111122 
DISL,ioos:station:DISL:MHPA:1,2013-01-06T17:00:00Z,30.6671,-87.9365,2.359,9.76,1111122 
DISL,ioos:station:DISL:MHPA:1,2013-01-06T17:30:00Z,30.6671,-87.9365,2.468,9.62,1111122 
DISL,ioos:station:DISL:MHPA:1,2013-01-06T18:00:00Z,30.6671,-87.9365,2.591,9.73,1111122 
DISL,ioos:station:DISL:MHPA:1,2013-01-06T18:30:00Z,30.6671,-87.9365,2.577,9.69,1111122 
DISL,ioos:station:DISL:MHPA:1,2013-01-06T19:00:00Z,30.6671,-87.9365,2.553,9.76,1111122 
DISL,ioos:station:DISL:MHPA:1,2013-01-06T19:30:00Z,30.6671,-87.9365,2.586,9.64,1111122 
DISL,ioos:station:DISL:MHPA:1,2013-01-06T20:00:00Z,30.6671,-87.9365,2.61,9.52,1111122 
DISL,ioos:station:DISL:MHPA:1,2013-01-06T20:30:00Z,30.6671,-87.9365,2.621,9.38,1111122 
DISL,ioos:station:DISL:MHPA:1,2013-01-06T21:00:00Z,30.6671,-87.9365,2.646,9.62,1111122 
DISL,ioos:station:DISL:MHPA:1,2013-01-06T21:30:00Z,30.6671,-87.9365,2.75,9.92,1111122 
DISL,ioos:station:DISL:MHPA:1,2013-01-06T22:00:00Z,30.6671,-87.9365,2.927,10.02,1111122 
DISL,ioos:station:DISL:MHPA:1,2013-01-06T22:30:00Z,30.6671,-87.9365,3.114,9.96,1111122 